Flag for U.S.A. Weather past 2 weeks in Cleveland, Tennessee, U.S.A.

Now
69 °F

Partly cloudy.


Feels Like: 69 °F
Forecast: 65 / 83 °F
Wind: No wind

Location: Lovell Field

Current Time: Aug 29, 2015 at 5:47:35 AM

Latest Report: Aug 29, 2015 at 4:53 AM


Visibility: 9 mi

Pressure: 30.12 "Hg

Humidity: 90%

Dew point: 66 °F

Location of ClevelandLocation

Historic Weather in Cleveland — Graph

°F

Cleveland temperature yesterday

Maximum temperature yesterday: 86 °F (at 4:53 PM)
Minimum temperature yesterday: 68 °F (at 4:53 AM)
Average temperature yesterday: 76 °F

Past Weeks' High & Low Weather Summary

 TemperatureHumidityPressure
High89 °F (Aug 16, 2:53 PM)97% (Aug 17, 12:53 PM)30.19 "Hg (Aug 17, 12:53 PM)
Low60 °F (Aug 26, 4:53 AM)35% (Aug 25, 4:53 PM)29.87 "Hg (Aug 19, 4:53 PM)
Average76 °F74%30.04 "Hg
* Reported Aug 14 2:53 AM — Aug 29 2:53 AM, Cleveland, Weather by CustomWeather, © 2015

Note: Actual official high and low records may vary slightly from our data, if they occured in-between our weather recording intervals... More about our weather records

Advertising

Cleveland weather history for previous 24 hours

 ConditionsComfort  
Time TempWeatherWind HumidityBarometerVisibility
2:53 AM
Sat, Aug 29
70 °FPassing clouds.No wind87%30.11 "Hg9 mi
1:53 AM72 °FClear.No wind81%30.13 "Hg10 mi
12:53 AM73 °FClear.No wind79%30.13 "Hg10 mi
11:53 PM
Fri, Aug 28
76 °FPassing clouds.3 mph69%30.14 "Hg10 mi
10:53 PM77 °FPassing clouds.No wind66%30.13 "Hg10 mi
9:53 PM78 °FPassing clouds.5 mph64%30.12 "Hg10 mi
8:53 PM79 °FScattered clouds.3 mph62%30.08 "Hg10 mi
7:53 PM82 °FScattered clouds.5 mph56%30.06 "Hg10 mi
6:53 PM84 °FScattered clouds.7 mph53%30.06 "Hg10 mi
5:53 PM86 °FBroken clouds.9 mph48%30.05 "Hg10 mi
4:53 PM86 °FPartly sunny.9 mph49%30.05 "Hg10 mi
3:53 PM84 °FBroken clouds.6 mph55%30.07 "Hg10 mi
2:53 PM84 °FBroken clouds.6 mph57%30.09 "Hg10 mi
1:53 PM83 °FBroken clouds.5 mph57%30.12 "Hg10 mi
12:53 PM81 °FBroken clouds.3 mph60%30.14 "Hg10 mi
11:53 AM79 °FBroken clouds.6 mph65%30.16 "Hg10 mi
10:53 AM76 °FBroken clouds.6 mph67%30.16 "Hg10 mi
9:53 AM73 °FPartly sunny.7 mph71%30.16 "Hg10 mi
8:53 AM70 °FPartly sunny.6 mph76%30.14 "Hg10 mi
7:53 AM69 °FPassing clouds.7 mph76%30.11 "Hg10 mi
6:53 AM68 °FPassing clouds.No wind78%30.09 "Hg10 mi
5:53 AM68 °FPassing clouds.3 mph78%30.07 "Hg10 mi
Weather by CustomWeather, © 2015

See weather overviewHow to use our weather pages